This demonstration page uses our WeatherBlox Daily Observations layout. Learn more.

Left ArrowRight Arrow

Hourly Observations for July 9, 2016

Temp ( °F °C ) Dew Point ( °F °C ) Humidity (%) Winds ( mph kmh ) Pressure ( in mb ) Visibility ( mi km ) Precip ( " mm )
12:53 am 00:53 Mostly Clear 72 22.2 64 17.8 76 76 SE 10 17 29.99 1016 10 16 0.00 0.00
1:53 am 01:53 Clear 72 22.2 63 17.2 73 73 ESE 9 15 29.97 1015 10 16 0.00 0.00
2:53 am 02:53 Clear 70 21.1 63 17.2 79 79 ESE 5 7 29.96 1015 10 16 0.00 0.00
3:53 am 03:53 Clear 70 21.1 64 17.8 82 82 ESE 7 11 29.96 1014 10 16 0.00 0.00
4:53 am 04:53 Mostly Clear 69 20.6 65 18.3 87 87 SE 12 19 29.98 1015 10 16 0.00 0.00
5:53 am 05:53 Clear 69 20.6 65 18.3 87 87 S 7 11 29.98 1015 10 16 0.00 0.00
6:53 am 06:53 Sunny 69 20.6 65 18.3 87 87 SSE 7 11 29.99 1016 10 16 0.00 0.00
7:53 am 07:53 Sunny 71 21.7 66 18.9 84 84 SSE 8 13 29.98 1015 10 16 0.00 0.00
8:53 am 08:53 Sunny 76 24.4 69 20.6 79 79 SE 9 15 29.98 1015 10 16 0.00 0.00
9:53 am 09:53 Sunny 79 26.1 70 21.1 74 74 SSE 8 13 29.99 1016 10 16 0.00 0.00
10:53 am 10:53 Sunny 82 27.8 72 22.2 72 72 SSE 12 19 29.97 1015 10 16 0.00 0.00
11:53 am 11:53 Mostly Sunny 85 29.4 73 22.8 68 68 SSE 8 13 29.96 1015 10 16 0.00 0.00
12:53 pm 12:53 Sunny 87 30.6 71 21.7 59 59 S 13 20 29.95 1014 10 16 0.00 0.00
1:53 pm 13:53 Sunny 89 31.7 72 22.2 57 57 SSE 15 24 29.94 1014 10 16 0.00 0.00
2:53 pm 14:53 Mostly Sunny 90 32.2 72 22.2 56 56 SSE 16 26 29.93 1014 10 16 0.00 0.00
3:53 pm 15:53 Mostly Sunny 89 31.7 71 21.7 55 55 S 13 20 29.92 1013 10 16 0.00 0.00
4:53 pm 16:53 Sunny 91 32.8 72 22.2 54 54 SSE 10 17 29.91 1013 10 16 0.00 0.00
5:53 pm 17:53 Sunny 91 32.8 71 21.7 52 52 S 9 15 29.89 1012 10 16 0.00 0.00
6:53 pm 18:53 Sunny 90 32.2 71 21.7 54 54 S 12 19 29.88 1012 10 16 0.00 0.00
7:53 pm 19:53 Sunny 88 31.1 72 22.2 59 59 SSE 10 17 29.86 1011 10 16 0.00 0.00
8:53 pm 20:53 Sunny 85 29.4 71 21.7 63 63 SSE 8 13 29.87 1012 10 16 0.00 0.00
9:53 pm 21:53 Clear 83 28.3 71 21.7 67 67 SE 9 15 29.88 1012 10 16 0.00 0.00
10:53 pm 22:53 Clear 81 27.2 71 21.7 72 72 SSE 9 15 29.88 1012 10 16 0.00 0.00
11:53 pm 23:53 Clear 79 26.1 70 21.1 74 74 undefined N/A 29.88 1012 10 16 0.00 0.00

Powered by AerisWeather